sat.trackr.live / text

‹ back to catalog

STARLINK-35275

NORAD 65756 · 2025-216Y

PAYLOAD ACTIVE UNKNOWN

§ Identity

Operator
Country
US
Launch date
2025-09-25
Launch site
AFETR
Launch vehicle
Mass (kg)
RCS (m²)

Purposes: comms

External: N2YO · Heavens-Above · Gunter

§ Orbital elements

Epoch: 2026-09-20T01:39:32.956416Z

Period
93.85 min
Inclination
53.1594°
Eccentricity
0.0001655
Mean motion
15.34401729 rev/d
Perigee alt
461.6 km
Apogee alt
463.8 km
Semi-major
6,840.8 km
B*
2.8446e-4
RAAN
147.9050°
Arg perigee
96.5936°
Mean anomaly
263.5255°
Rev number
5,633

§ Raw data

STARLINK-352751 65756U 25216Y   26263.06913144  .00009247  00000+0  28446-3 0  99902 65756  53.1594 147.9050 0001655  96.5936 263.5255 15.34401729 56330

JSON: /api/v1/satellites/65756 · /tle

For live sub-satellite position, see the globe view (requires WebGL).

§ Visibility from observer

Set your observer location to see the next 7 days of passes ≥ 10°. The values pass through the URL so the page stays shareable.

No JS? Fill the form by hand. The geolocation button needs JavaScript.